Location: Sungai Bunut
(2.6333°N, 113.7333°E)
Time: 12:17:52
(UTC+00:00)

Cosmos 2360 - Pass Details

Date: 16 October 2021
Orbit: 844 x 857 km, 70.8° (Epoch: 29 November)

Event Time Altitude Azimuth Distance (km) Brightness Sun altitude
Rises 21:15:19 0° 342° (NNW) 3,414 7.1 -14.0°
Reaches altitude 10° 21:17:46 10° 340° (NNW) 2,480 6.4 -13.4°
Maximum altitude 21:23:28 77° 255° (WSW) 878 4.2 -12.0°
Drops below altitude 10° 21:29:11 10° 169° (S) 2,484 6.9 -10.6°
Sets 21:31:38 0° 167° (SSE) 3,420 7.7 -10.0°
